Location: Nairn
(57.5833°N, 3.8667°W)
Time: 03:21:47
(UTC+00:00)

NOSS 3-2 (A) - Pass Details

Date: 07 August 2020
Orbit: 795 x 1413 km, 63.4° (Epoch: 22 September)

Event Time Altitude Azimuth Distance (km) Brightness Sun altitude
Rises 00:46:30 0° 250° (WSW) 3,494 6.2 -15.9°
Reaches altitude 10° 00:48:52 10° 253° (WSW) 2,623 5.5 -15.9°
Maximum altitude 00:54:59 68° 337° (NNW) 1,102 4.0 -15.8°
Drops below altitude 10° 01:02:11 10° 60° (ENE) 3,062 6.6 -15.6°
Sets 01:05:10 0° 64° (ENE) 4,121 7.3 -15.5°
